Погода в Великом Устюге

Россия / Вологодская область     60°45′37″N   46°18′19″E
темп.,
°C
ветер,
м/с
пор.,
м/с
влажн.,
%
обл.,
%
осадки,
мм/ч
давл.,
гПа
погр.,
м
20 апреля, вт
вт2000:00−1юв22700 0.0 103512
03:00−1ююв11750 0.0 103610
06:000ююв12670 0.0 103593
09:00+6ююв23440 0.0 1035736
12:00+9ююв23360 0.0 10331338
15:00+10ююв23350 0.0 10321406
18:00+8юв24480 0.0 1030123
21:00+3юв24685 0.0 103067
21 апреля, ср
ср2100:00+1ююв257586 0.0 1029103
03:00−1вюв287749 0.0 1029152
06:00+2вюв41263100 0.0 1026427
09:00+7юв61240100 0.0 10241002
12:00+10юв71538100 0.0 10201344
15:00+9юв71641100 0.0 10181555
18:00+6ююв71668100 0.2 10161312
21:00+3ююв71488100 0.3 10161040
22 апреля, чт
чт2200:00+3ююв61496100 0.2 1015772
03:00+4ююв51390100 0.2 1015841
06:00+4ю51289100 0.1 10151133
09:00+5ю51086100 0.1 1015980
12:00+7ю5974100 0.1 10161139
15:00+7ю4869100 0.2 10161129
18:00+8ю510685 0.0 1016946
21:00+5ю5138551 0.0 1017653
23 апреля, пт
пт2300:00+5ю41291100 0.1 1017716
03:00+5ююз4129299 0.4 1018567
06:00+5ююз3109117 0.0 1019455
09:00+10юз467099 0.0 1019999
12:00+11ююз3759100 0.1 10201489
15:00+12ю3760100 0.1 1020645
18:00+12ююв49645 0.0 1020537
21:00+7ююв311796 0.0 1021257
24 апреля, сб
сб2400:00+6ююв312875 0.0 1020299
03:00+6юв313855 0.0 1019331
06:00+7юв412845 0.0 1018456
09:00+12ююв596313 0.0 1017790
12:00+15ююв68495 0.1 10161651
15:00+15юв584673 0.2 10142128
18:00+12ююв51058100 0.1 10141136
21:00+9юв51267100 0.1 1014565